False Pass, AK

4:24 PM HST on January 16, 2018 (GMT -1000)
False Pass

Weather History for PAKF - December, 2012

Change the Weather History Date:

Friday, December 14, 2012

  Actual Average (PACD) Record (PACD)
Temperature  
Mean Temperature 34 °F -  
Max Temperature 37 °F 34 °F 46 °F (1968)
Min Temperature 28 °F 26 °F 9 °F (1999)
Degree Days  
Heating Degree Days 32    
Moisture  
Dew Point 26 °F    
Average Humidity 75    
Maximum Humidity 89    
Minimum Humidity 65    
Precipitation  
Precipitation 0.02 in - - ()
Sea Level Pressure  
Sea Level Pressure 29.62 in    
Wind  
Wind Speed 15 mph (WSW)    
Max Wind Speed 31 mph    
Max Gust Speed 45 mph    
Visibility 6 miles    
Events Rain , Snow    
Averages and records for this station are not official NWS values.
T = Trace of Precipitation, MM = Missing Value Source: NWS Daily Summary

Daily Weather History Graph

Daily Weather History Graph

Search for Another Location

Airport or City:

Trip Planner

Search our weather history database for the weather conditions in past years. The results will help you decide how hot, cold, wet, or windy it might be!

Date:

Astronomy

Dec. 14, 2012 Rise Set
Actual Time 9:11 AM HST 4:26 PM HST
Civil Twilight 8:26 AM HST 5:11 PM HST
Nautical Twilight 7:38 AM HST 5:58 PM HST
Astronomical Twilight 6:54 AM HST 6:42 PM HST
Moon 10:15 AM HST (12/14) 6:47 PM HST (12/14)
Length of Visible Light 8h 44m
Length of Day
7h 14m
Waxing Crescent, 4% of the Moon is Illuminated
Dec 14
Waxing Crescent
Dec 19
First Quarter
Dec 28
Full
Jan 4
Last Quarter
Jan 11
New

Hourly Weather History & Observations

Time (HST) Temp. Windchill Dew Point Humidity Pressure Visibility Wind Dir Wind Speed Gust Speed Precip Events Conditions
12:01 AM 37.0 °F 31.6 °F 30.9 °F 79% 29.73 in 10.0 mi SE 6.9 mph - N/A   Overcast
1:01 AM 36.0 °F - 30.9 °F 82% 29.73 in 10.0 mi Calm Calm - N/A   Overcast
2:01 AM 34.0 °F - 30.0 °F 85% 29.71 in 10.0 mi Calm Calm - N/A   Overcast
3:01 AM 34.0 °F 31.0 °F 28.9 °F 82% 29.69 in 10.0 mi NNE 3.5 mph - 0.00 in   Overcast
4:01 AM 32.0 °F 28.7 °F 28.9 °F 88% 29.69 in 10.0 mi WSW 3.5 mph - N/A   Partly Cloudy
5:01 AM 33.1 °F 30.0 °F 30.0 °F 89% 29.68 in 10.0 mi Variable 3.5 mph - 0.00 in Rain Light Rain
6:12 AM 37.4 °F 30.3 °F 28.4 °F 70% 29.41 in 10.0 mi WSW 10.4 mph 27.6 mph 0.00 in Rain Light Rain
6:41 AM 37.4 °F 29.8 °F 28.4 °F 70% 29.42 in 9.0 mi West 11.5 mph 20.7 mph 0.00 in Rain Light Rain
6:49 AM 35.6 °F 24.8 °F 30.2 °F 81% 29.42 in 2.0 mi SW 19.6 mph 28.8 mph 0.00 in Snow Light Snow
7:01 AM 35.1 °F 23.5 °F 30.9 °F 85% 29.71 in 2.0 mi WSW 21.9 mph 39.1 mph 0.01 in Snow Light Snow
7:04 AM 35.6 °F 24.8 °F 30.2 °F 81% 29.43 in 1.5 mi SW 19.6 mph 39.1 mph 0.00 in Snow Light Snow
7:13 AM 35.6 °F 26.6 °F 30.2 °F 81% 29.43 in 2.0 mi West 13.8 mph 25.3 mph 0.00 in Snow Light Snow
7:23 AM 35.6 °F 25.5 °F 30.2 °F 81% 29.44 in 3.0 mi West 17.3 mph 31.1 mph 0.01 in Snow Light Snow
7:36 AM 35.6 °F 24.8 °F 30.2 °F 81% 29.44 in 6.0 mi WSW 19.6 mph 33.4 mph 0.01 in Snow Light Snow
8:01 AM 35.1 °F 24.5 °F 28.0 °F 76% 29.74 in 10.0 mi WSW 18.4 mph 32.2 mph 0.01 in   Overcast
8:28 AM 35.6 °F 24.5 °F 26.6 °F 70% 29.47 in 3.0 mi WSW 20.7 mph 36.8 mph 0.00 in Snow Light Snow
8:32 AM 33.8 °F 21.3 °F 28.4 °F 81% 29.47 in 1.8 mi WSW 24.2 mph 36.8 mph 0.00 in Snow Light Snow
8:44 AM 33.8 °F 21.6 °F 28.4 °F 81% 29.48 in 1.8 mi WSW 23.0 mph 34.5 mph 0.00 in Snow Light Snow
8:46 AM 35.6 °F 25.2 °F 26.6 °F 70% 29.48 in 2.5 mi WSW 18.4 mph 34.5 mph 0.00 in Snow Light Snow
8:53 AM 35.6 °F 24.0 °F 26.6 °F 70% 29.48 in 8.0 mi WSW 23.0 mph 35.7 mph 0.00 in Snow Light Snow
9:01 AM 35.1 °F 23.5 °F 26.1 °F 70% 29.76 in 9.0 mi West 21.9 mph 35.7 mph 0.00 in Rain Light Rain
9:16 AM 35.6 °F 23.7 °F 26.6 °F 70% 29.49 in 2.5 mi WSW 24.2 mph 36.8 mph 0.00 in Snow Light Snow
9:19 AM 35.6 °F 24.8 °F 28.4 °F 75% 29.48 in 3.0 mi West 19.6 mph 36.8 mph 0.00 in Snow Light Snow
9:27 AM 35.6 °F 24.0 °F 26.6 °F 70% 29.49 in 8.0 mi West 23.0 mph 38.0 mph 0.00 in Snow Light Snow
10:01 AM 34.0 °F 23.4 °F 27.0 °F 75% 29.78 in 7.0 mi West 17.3 mph 26.5 mph 0.00 in Snow Light Snow
10:11 AM 33.8 °F 23.9 °F 26.6 °F 75% 29.50 in 9.0 mi SW 15.0 mph 29.9 mph 0.00 in Snow Light Snow
10:23 AM 33.8 °F 21.9 °F 26.6 °F 75% 29.51 in 10.0 mi West 21.9 mph 35.7 mph 0.00 in Rain Light Rain
11:01 AM 35.1 °F 22.5 °F 25.0 °F 67% 29.80 in 10.0 mi West 26.5 mph 40.3 mph 0.00 in   Mostly Cloudy
11:08 AM 35.6 °F 23.7 °F 26.6 °F 70% 29.52 in 10.0 mi WSW 24.2 mph 35.7 mph 0.00 in   Scattered Clouds
11:38 AM 35.6 °F 24.0 °F 24.8 °F 65% 29.52 in 10.0 mi West 23.0 mph 34.5 mph 0.00 in   Overcast
11:46 AM 35.6 °F 23.7 °F 24.8 °F 65% 29.52 in 9.0 mi West 24.2 mph 38.0 mph 0.00 in Rain Light Rain
12:01 PM 33.8 °F 21.9 °F 26.6 °F 75% 29.52 in 5.0 mi West 21.9 mph 35.7 mph 0.00 in Snow Light Snow
12:10 PM 35.1 °F 23.5 °F 26.1 °F 70% 29.81 in 8.0 mi West 21.9 mph 35.7 mph 0.00 in Snow Light Snow
12:32 PM 35.6 °F 23.2 °F 26.6 °F 70% 29.53 in 10.0 mi West 26.5 mph 35.7 mph 0.00 in Rain Light Rain
12:53 PM 35.6 °F 23.7 °F 24.8 °F 65% 29.52 in 10.0 mi WSW 24.2 mph 33.4 mph 0.00 in Rain Light Rain
2:01 PM 34.0 °F 22.7 °F 25.0 °F 70% 29.82 in 4.0 mi WSW 19.6 mph 33.4 mph 0.00 in Rain Light Rain
2:31 PM 33.8 °F 21.3 °F 26.6 °F 75% 29.54 in 1.8 mi WSW 24.2 mph 31.1 mph 0.00 in Snow Light Snow
2:42 PM 32.0 °F 19.5 °F 26.6 °F 80% 29.54 in 1.5 mi WSW 21.9 mph 28.8 mph 0.00 in Snow Light Snow
2:58 PM 32.0 °F 20.5 °F 24.8 °F 75% 29.55 in 3.0 mi WSW 18.4 mph 29.9 mph 0.00 in Snow Light Snow
3:01 PM 32.0 °F 19.5 °F 25.0 °F 75% 29.83 in 5.0 mi WSW 21.9 mph 29.9 mph 0.00 in Snow Light Snow
3:29 PM 32.0 °F 19.5 °F 23.0 °F 69% 29.55 in 6.0 mi WSW 21.9 mph 39.1 mph 0.00 in Snow Light Snow
3:57 PM 32.0 °F 17.6 °F 24.8 °F 75% 29.54 in 1.8 mi WSW 29.9 mph 39.1 mph 0.00 in Snow Light Snow
4:01 PM 32.0 °F 17.9 °F 25.0 °F 75% 29.83 in 1.5 mi WSW 28.8 mph 40.3 mph 0.00 in Snow Light Snow
4:08 PM 32.0 °F 18.1 °F 24.8 °F 75% 29.55 in 2.5 mi WSW 27.6 mph 40.3 mph 0.00 in Snow Light Snow
4:22 PM 32.0 °F 17.4 °F 24.8 °F 75% 29.56 in 2.5 mi WSW 31.1 mph 36.8 mph 0.00 in Snow Light Snow
4:30 PM 32.0 °F 18.4 °F 24.8 °F 75% 29.56 in 3.0 mi West 26.5 mph 38.0 mph 0.00 in Snow Light Snow
4:41 PM 32.0 °F 18.6 °F 24.8 °F 75% 29.57 in 2.5 mi WSW 25.3 mph 33.4 mph 0.00 in Snow Light Snow
4:48 PM 32.0 °F 18.9 °F 24.8 °F 75% 29.57 in 4.0 mi WSW 24.2 mph 33.4 mph 0.00 in Snow Light Snow
5:01 PM 32.0 °F 18.1 °F 25.0 °F 75% 29.86 in 3.0 mi West 27.6 mph 35.7 mph 0.00 in Snow Light Snow
5:26 PM 32.0 °F 17.9 °F 24.8 °F 75% 29.57 in 3.0 mi WSW 28.8 mph 40.3 mph 0.00 in Snow Light Snow
5:42 PM 30.2 °F 16.5 °F 24.8 °F 80% 29.57 in 2.5 mi WSW 24.2 mph 39.1 mph 0.00 in Snow Light Snow
6:01 PM 32.0 °F 19.5 °F 24.1 °F 73% 29.87 in 5.0 mi WSW 21.9 mph 44.9 mph 0.00 in Snow Light Snow
8:01 PM 30.9 °F 16.9 °F 21.9 °F 69% 29.92 in 10.0 mi WSW 26.5 mph 34.5 mph 0.00 in Snow Light Snow
8:10 PM 30.2 °F 18.5 °F 21.2 °F 69% 29.64 in 8.0 mi WSW 17.3 mph 32.2 mph 0.00 in Snow Light Snow
8:56 PM 30.2 °F 20.8 °F 23.0 °F 75% 29.66 in 7.0 mi West 11.5 mph 27.6 mph 0.00 in Snow Light Snow
9:01 PM 30.9 °F 21.2 °F 23.0 °F 72% 29.95 in 7.0 mi WSW 12.7 mph 27.6 mph 0.00 in Snow Light Snow
10:01 PM 30.0 °F 24.1 °F 23.0 °F 75% 29.97 in 8.0 mi Variable 5.8 mph - 0.00 in Snow Light Snow
11:01 PM 28.9 °F 21.1 °F 24.1 °F 82% 29.99 in 9.0 mi NW 8.1 mph - 0.00 in Snow Light Snow